Location: Cerda�ola
(41.4919°N, 2.1403°E)
Time: 03:37:48
(UTC+00:00)

Cosmos 292 Rocket - Pass Details

Date: 29 March 2020
Orbit: 672 x 695 km, 74.0° (Epoch: 31 May)

Event Time Altitude Azimuth Distance (km) Brightness Sun altitude
Rises 20:12:18 0° 344° (NNW) 3,042 7.7 -22.0°
Reaches altitude 10° 20:14:39 10° 348° (NNW) 2,126 6.8 -22.4°
Enters shadow 20:19:20 58° 67° (ENE) 794 3.8 -23.2°
